AEE90C LGAV-LCLK

Flight info

Callsign AEE90C
Flight time 1h 20m
Altitude 37000
Route KEA UL995 RDS UM601 EVENO M601 BONEK
Aircraft A321/M-SDE3FGHIRWY/LB1

Departure

Time 2026-05-05 11:03
Airport Athens Eleftherios Venizelos International Airport (LGAV)

Arrival

Time 2026-05-05 12:23
Airport Larnaca International Airport (LCLK)
Time Latitude Longitude Altitude Speed Heading
2026-05-05 10:27 37.94161 23.95297 301 ft 0 kts 218°
2026-05-05 10:50 37.94178 23.95313 302 ft 4 kts 217°
2026-05-05 10:50 37.94200 23.95334 303 ft 4 kts 217°
2026-05-05 10:51 37.94219 23.95353 302 ft 4 kts 214°
2026-05-05 10:51 37.94241 23.95362 301 ft 4 kts 156°
2026-05-05 10:51 37.94259 23.95343 301 ft 2 kts 127°
2026-05-05 10:51 37.94263 23.95336 301 ft 0 kts 127°
2026-05-05 10:54 37.94262 23.95338 301 ft 1 kts 127°
2026-05-05 10:54 37.94251 23.95356 302 ft 4 kts 127°
2026-05-05 10:54 37.94225 23.95399 301 ft 8 kts 127°
2026-05-05 10:55 37.94189 23.95459 303 ft 9 kts 127°
2026-05-05 10:55 37.94146 23.95531 302 ft 11 kts 127°
2026-05-05 10:55 37.94095 23.95617 300 ft 13 kts 128°
2026-05-05 10:55 37.94006 23.95619 300 ft 16 kts 216°
2026-05-05 10:56 37.93916 23.95534 299 ft 17 kts 217°
2026-05-05 10:56 37.93819 23.95442 298 ft 18 kts 217°
2026-05-05 10:56 37.93718 23.95345 297 ft 19 kts 217°
2026-05-05 10:56 37.93613 23.95247 299 ft 19 kts 217°
2026-05-05 10:57 37.93505 23.95144 300 ft 20 kts 217°
2026-05-05 10:57 37.93395 23.95037 299 ft 20 kts 217°
2026-05-05 10:57 37.93280 23.94929 299 ft 21 kts 216°
2026-05-05 10:57 37.93163 23.94819 300 ft 21 kts 217°
2026-05-05 10:58 37.93044 23.94706 303 ft 22 kts 217°
2026-05-05 10:58 37.92923 23.94591 303 ft 22 kts 216°
2026-05-05 10:58 37.92800 23.94476 304 ft 22 kts 217°
2026-05-05 10:58 37.92677 23.94358 306 ft 22 kts 217°
2026-05-05 10:59 37.92555 23.94243 306 ft 20 kts 216°
2026-05-05 10:59 37.92473 23.94166 305 ft 11 kts 211°
2026-05-05 10:59 37.92413 23.94204 304 ft 10 kts 105°
2026-05-05 10:59 37.92412 23.94212 305 ft 0 kts 99°
2026-05-05 11:00 37.92411 23.94223 304 ft 4 kts 97°
2026-05-05 11:00 37.92410 23.94280 307 ft 8 kts 88°
2026-05-05 11:00 37.92410 23.94345 308 ft 7 kts 96°
2026-05-05 11:00 37.92428 23.94398 309 ft 7 kts 43°
2026-05-05 11:01 37.92448 23.94418 310 ft 0 kts 37°
2026-05-05 11:02 37.92454 23.94423 309 ft 9 kts 37°
2026-05-05 11:02 37.92723 23.94681 303 ft 86 kts 37°
2026-05-05 11:02 37.93387 23.95310 288 ft 149 kts 37°
2026-05-05 11:02 37.94317 23.96183 518 ft 176 kts 39°
2026-05-05 11:03 37.95299 23.97108 1272 ft 177 kts 38°
2026-05-05 11:03 37.96275 23.98058 2017 ft 177 kts 36°
2026-05-05 11:03 37.97287 23.99035 2399 ft 192 kts 34°
2026-05-05 11:03 37.98414 24.00116 2639 ft 215 kts 35°
2026-05-05 11:04 37.99675 24.01326 2958 ft 238 kts 34°
2026-05-05 11:04 38.01014 24.02612 3634 ft 245 kts 35°
2026-05-05 11:04 38.02378 24.03926 4370 ft 248 kts 34°
2026-05-05 11:04 38.03757 24.05256 5079 ft 252 kts 34°
2026-05-05 11:05 38.05153 24.06599 5607 ft 252 kts 35°
2026-05-05 11:05 38.06547 24.07942 6146 ft 251 kts 34°
2026-05-05 11:05 38.07905 24.09332 6675 ft 252 kts 44°
2026-05-05 11:05 38.08848 24.11225 7191 ft 259 kts 67°
2026-05-05 11:06 38.09103 24.13524 7718 ft 273 kts 92°
2026-05-05 11:06 38.08617 24.15918 8260 ft 286 kts 106°
2026-05-05 11:06 38.07714 24.18191 8797 ft 294 kts 124°
2026-05-05 11:06 38.06260 24.20038 9356 ft 300 kts 143°
2026-05-05 11:07 38.04389 24.21232 9911 ft 305 kts 162°
2026-05-05 11:07 38.02287 24.21725 10432 ft 311 kts 172°
2026-05-05 11:07 38.00099 24.22102 10850 ft 324 kts 172°
2026-05-05 11:07 37.97828 24.22497 11251 ft 336 kts 172°
2026-05-05 11:08 37.95472 24.22911 11661 ft 347 kts 172°
2026-05-05 11:08 37.93047 24.23341 12062 ft 357 kts 172°
2026-05-05 11:08 37.90552 24.23780 12481 ft 366 kts 172°
2026-05-05 11:08 37.88015 24.24223 12903 ft 370 kts 172°
2026-05-05 11:09 37.85454 24.24672 13371 ft 374 kts 173°
2026-05-05 11:09 37.82865 24.25127 13965 ft 377 kts 173°
2026-05-05 11:09 37.80258 24.25583 14486 ft 380 kts 173°
2026-05-05 11:09 37.77658 24.26037 15007 ft 384 kts 173°
2026-05-05 11:10 37.75004 24.26502 15530 ft 387 kts 173°
2026-05-05 11:10 37.72321 24.26971 16047 ft 390 kts 174°
2026-05-05 11:10 37.69623 24.27442 16563 ft 394 kts 174°
2026-05-05 11:10 37.66896 24.27917 17070 ft 397 kts 174°
2026-05-05 11:11 37.64152 24.28394 17563 ft 400 kts 174°
2026-05-05 11:11 37.61407 24.29067 18077 ft 405 kts 165°
2026-05-05 11:11 37.58806 24.30487 18535 ft 411 kts 150°
2026-05-05 11:11 37.56513 24.32664 18945 ft 416 kts 135°
2026-05-05 11:12 37.54677 24.35476 19335 ft 418 kts 121°
2026-05-05 11:12 37.53405 24.38776 19751 ft 418 kts 107°
2026-05-05 11:12 37.52499 24.42266 20161 ft 421 kts 105°
2026-05-05 11:12 37.51587 24.45784 20578 ft 423 kts 106°
2026-05-05 11:13 37.50662 24.49319 20990 ft 426 kts 106°
2026-05-05 11:13 37.49732 24.52870 21403 ft 429 kts 105°
2026-05-05 11:13 37.48795 24.56450 21795 ft 432 kts 105°
2026-05-05 11:13 37.47854 24.60045 22198 ft 434 kts 105°
2026-05-05 11:14 37.46903 24.63673 22586 ft 437 kts 105°
2026-05-05 11:14 37.45944 24.67314 22967 ft 440 kts 105°
2026-05-05 11:14 37.44980 24.70975 23353 ft 442 kts 105°
2026-05-05 11:14 37.44008 24.74663 23728 ft 445 kts 105°
2026-05-05 11:15 37.43031 24.78374 24046 ft 448 kts 105°
2026-05-05 11:15 37.42048 24.82098 24371 ft 450 kts 105°
2026-05-05 11:15 37.41058 24.85846 24696 ft 452 kts 105°
2026-05-05 11:15 37.40066 24.89605 25023 ft 454 kts 105°
2026-05-05 11:16 37.39063 24.93387 25355 ft 457 kts 105°
2026-05-05 11:16 37.38048 24.97185 25681 ft 459 kts 105°
2026-05-05 11:16 37.37028 25.00996 26002 ft 461 kts 105°
2026-05-05 11:16 37.36005 25.04831 26332 ft 463 kts 105°
2026-05-05 11:17 37.34997 25.08624 26644 ft 465 kts 105°
2026-05-05 11:17 37.33970 25.12483 26948 ft 467 kts 105°
2026-05-05 11:17 37.32935 25.16361 27248 ft 469 kts 105°
2026-05-05 11:17 37.31892 25.20262 27551 ft 471 kts 105°
2026-05-05 11:18 37.30846 25.24171 27845 ft 473 kts 105°
2026-05-05 11:18 37.29793 25.28097 28141 ft 476 kts 105°
2026-05-05 11:18 37.28729 25.32045 28412 ft 478 kts 105°
2026-05-05 11:18 37.27656 25.36001 28723 ft 480 kts 105°
2026-05-05 11:19 37.26519 25.39961 29030 ft 483 kts 107°
2026-05-05 11:19 37.25291 25.43905 29305 ft 486 kts 109°
2026-05-05 11:19 37.24000 25.47831 29576 ft 488 kts 109°
2026-05-05 11:19 37.22675 25.51771 29838 ft 491 kts 109°
2026-05-05 11:20 37.21331 25.55726 30085 ft 493 kts 110°
2026-05-05 11:20 37.19978 25.59685 30317 ft 495 kts 109°
2026-05-05 11:20 37.18629 25.63659 30507 ft 496 kts 109°
2026-05-05 11:20 37.17289 25.67647 30732 ft 498 kts 109°
2026-05-05 11:21 37.15951 25.71655 30922 ft 499 kts 109°
2026-05-05 11:21 37.14615 25.75668 31184 ft 498 kts 109°
2026-05-05 11:21 37.13281 25.79678 31453 ft 498 kts 109°
2026-05-05 11:21 37.11947 25.83678 31720 ft 497 kts 109°
2026-05-05 11:22 37.10610 25.87672 31988 ft 497 kts 109°
2026-05-05 11:22 37.09271 25.91660 32247 ft 496 kts 109°
2026-05-05 11:22 37.07949 25.95583 32513 ft 496 kts 110°
2026-05-05 11:22 37.06605 25.99557 32798 ft 495 kts 110°
2026-05-05 11:23 37.05260 26.03525 33058 ft 494 kts 110°
2026-05-05 11:23 37.03920 26.07477 33315 ft 494 kts 110°
2026-05-05 11:23 37.02579 26.11436 33569 ft 493 kts 110°
2026-05-05 11:23 37.01241 26.15388 33799 ft 493 kts 110°
2026-05-05 11:24 36.99905 26.19333 34041 ft 493 kts 110°
2026-05-05 11:24 36.98566 26.23276 34260 ft 493 kts 110°
2026-05-05 11:24 36.97222 26.27223 34472 ft 493 kts 110°
2026-05-05 11:24 36.95883 26.31162 34655 ft 493 kts 110°
2026-05-05 11:25 36.94548 26.35108 34852 ft 493 kts 110°
2026-05-05 11:25 36.93214 26.39052 35024 ft 493 kts 110°
2026-05-05 11:25 36.91876 26.42997 35089 ft 491 kts 110°
2026-05-05 11:26 36.89210 26.50814 35081 ft 488 kts 110°
2026-05-05 11:26 36.86545 26.58610 35091 ft 488 kts 110°
2026-05-05 11:27 36.83876 26.66398 35078 ft 488 kts 110°
2026-05-05 11:27 36.81202 26.74184 35080 ft 488 kts 110°
2026-05-05 11:28 36.78969 26.80653 35073 ft 488 kts 110°
2026-05-05 11:28 36.76280 26.88441 35087 ft 489 kts 111°
2026-05-05 11:29 36.73588 26.96214 35082 ft 488 kts 111°
2026-05-05 11:29 36.70453 27.05246 35082 ft 488 kts 111°
2026-05-05 11:30 36.68187 27.11751 35074 ft 488 kts 111°
2026-05-05 11:30 36.65480 27.19498 35093 ft 488 kts 111°
2026-05-05 11:31 36.62790 27.27188 35073 ft 487 kts 111°
2026-05-05 11:31 36.60075 27.34921 35069 ft 487 kts 111°
2026-05-05 11:32 36.57351 27.42643 35063 ft 487 kts 111°
2026-05-05 11:32 36.54624 27.50356 35061 ft 487 kts 111°
2026-05-05 11:33 36.51896 27.58057 35056 ft 487 kts 111°
2026-05-05 11:33 36.49170 27.65750 35047 ft 486 kts 111°
2026-05-05 11:34 36.46439 27.73436 35031 ft 486 kts 111°
2026-05-05 11:34 36.43706 27.81121 35026 ft 486 kts 111°
2026-05-05 11:35 36.40967 27.88797 35022 ft 486 kts 112°
2026-05-05 11:35 36.38213 27.96460 35020 ft 486 kts 112°
2026-05-05 11:36 36.35459 28.04112 35022 ft 486 kts 112°
2026-05-05 11:36 36.33054 28.11854 35030 ft 483 kts 105°
2026-05-05 11:37 36.31038 28.19794 35023 ft 482 kts 105°
2026-05-05 11:37 36.29006 28.27720 35019 ft 482 kts 105°
2026-05-05 11:38 36.26968 28.35646 35013 ft 482 kts 105°
2026-05-05 11:38 36.24933 28.43560 35020 ft 482 kts 105°
2026-05-05 11:39 36.22891 28.51472 35020 ft 482 kts 105°
2026-05-05 11:39 36.20843 28.59375 35021 ft 482 kts 105°
2026-05-05 11:40 36.18780 28.67271 35029 ft 482 kts 106°
2026-05-05 11:40 36.16709 28.75162 35026 ft 482 kts 106°
2026-05-05 11:41 36.14636 28.83063 35023 ft 482 kts 106°
2026-05-05 11:41 36.12577 28.90904 35027 ft 482 kts 106°
2026-05-05 11:42 36.10507 28.98788 35032 ft 482 kts 106°
2026-05-05 11:42 36.08425 29.06668 35026 ft 482 kts 106°
2026-05-05 11:43 36.06330 29.14545 35027 ft 482 kts 106°
2026-05-05 11:43 36.04226 29.22423 35025 ft 482 kts 107°
2026-05-05 11:44 36.02122 29.30296 35026 ft 483 kts 107°
2026-05-05 11:44 36.00018 29.38180 35023 ft 483 kts 107°
2026-05-05 11:45 35.97904 29.46060 35022 ft 484 kts 107°
2026-05-05 11:45 35.95777 29.53938 35033 ft 484 kts 107°
2026-05-05 11:46 35.93663 29.61784 35025 ft 485 kts 107°
2026-05-05 11:46 35.91544 29.69681 35024 ft 485 kts 107°
2026-05-05 11:47 35.89413 29.77584 35025 ft 486 kts 107°
2026-05-05 11:47 35.87276 29.85493 35037 ft 486 kts 107°
2026-05-05 11:48 35.84053 29.97362 35028 ft 486 kts 107°
2026-05-05 11:48 35.81933 30.05277 35027 ft 486 kts 105°
2026-05-05 11:49 35.79947 30.13241 35034 ft 486 kts 105°
2026-05-05 11:49 35.77992 30.21221 35028 ft 487 kts 105°
2026-05-05 11:50 35.75994 30.29184 35027 ft 487 kts 105°
2026-05-05 11:50 35.73964 30.37150 35028 ft 488 kts 105°
2026-05-05 11:51 35.71919 30.45131 35030 ft 488 kts 105°
2026-05-05 11:51 35.69876 30.53102 35032 ft 489 kts 105°
2026-05-05 11:52 35.67826 30.61077 35032 ft 489 kts 105°
2026-05-05 11:52 35.65782 30.69048 35031 ft 489 kts 105°
2026-05-05 11:53 35.63751 30.76978 35027 ft 489 kts 105°
2026-05-05 11:53 35.61673 30.85007 35028 ft 490 kts 106°
2026-05-05 11:54 35.59641 30.92938 35031 ft 490 kts 105°
2026-05-05 11:54 35.57641 31.00934 35036 ft 490 kts 105°
2026-05-05 11:55 35.55629 31.08932 35030 ft 490 kts 105°
2026-05-05 11:55 35.53588 31.16923 34845 ft 490 kts 105°
2026-05-05 11:56 35.52564 31.20912 34657 ft 490 kts 105°
2026-05-05 11:56 35.51543 31.24894 34445 ft 490 kts 105°
2026-05-05 11:56 35.50520 31.28883 34165 ft 489 kts 105°
2026-05-05 11:56 35.49498 31.32860 33850 ft 487 kts 105°
2026-05-05 11:57 35.48482 31.36815 33522 ft 485 kts 105°
2026-05-05 11:57 35.47471 31.40748 33195 ft 482 kts 105°
2026-05-05 11:57 35.46464 31.44671 32875 ft 480 kts 105°
2026-05-05 11:57 35.45463 31.48565 32554 ft 478 kts 105°
2026-05-05 11:58 35.44461 31.52448 32219 ft 476 kts 105°
2026-05-05 11:58 35.43461 31.56307 31801 ft 474 kts 105°
2026-05-05 11:58 35.42466 31.60144 31397 ft 471 kts 105°
2026-05-05 11:58 35.41474 31.63967 30990 ft 469 kts 105°
2026-05-05 11:59 35.40484 31.67765 30596 ft 466 kts 105°
2026-05-05 11:59 35.39499 31.71543 30205 ft 464 kts 105°
2026-05-05 11:59 35.38519 31.75303 29771 ft 462 kts 105°
2026-05-05 11:59 35.37559 31.78983 29302 ft 459 kts 105°
2026-05-05 12:00 35.36591 31.82694 28816 ft 457 kts 104°
2026-05-05 12:00 35.35626 31.86394 28325 ft 455 kts 104°
2026-05-05 12:00 35.34667 31.90072 27827 ft 452 kts 104°
2026-05-05 12:00 35.33709 31.93734 27304 ft 449 kts 104°
2026-05-05 12:01 35.32757 31.97349 26831 ft 445 kts 104°
2026-05-05 12:01 35.31810 32.00937 26364 ft 441 kts 104°
2026-05-05 12:01 35.30874 32.04492 25944 ft 437 kts 104°
2026-05-05 12:01 35.29948 32.08011 25562 ft 431 kts 103°
2026-05-05 12:02 35.29037 32.11490 25135 ft 428 kts 103°
2026-05-05 12:02 35.28134 32.14939 24738 ft 424 kts 103°
2026-05-05 12:02 35.27238 32.18357 24345 ft 420 kts 103°
2026-05-05 12:02 35.26351 32.21742 23948 ft 416 kts 102°
2026-05-05 12:03 35.25471 32.25101 23536 ft 413 kts 102°
2026-05-05 12:03 35.24598 32.28431 23098 ft 408 kts 102°
2026-05-05 12:03 35.23746 32.31678 22687 ft 404 kts 102°
2026-05-05 12:03 35.22889 32.34930 22297 ft 399 kts 102°
2026-05-05 12:04 35.22039 32.38155 21881 ft 396 kts 102°
2026-05-05 12:04 35.21195 32.41349 21462 ft 393 kts 103°
2026-05-05 12:04 35.20357 32.44520 21054 ft 390 kts 103°
2026-05-05 12:04 35.19525 32.47661 20643 ft 387 kts 103°
2026-05-05 12:05 35.18700 32.50778 20227 ft 384 kts 103°
2026-05-05 12:05 35.17881 32.53877 19819 ft 381 kts 103°
2026-05-05 12:05 35.17068 32.56948 19417 ft 378 kts 103°
2026-05-05 12:05 35.16259 32.60001 19019 ft 377 kts 103°
2026-05-05 12:06 35.15453 32.63034 18616 ft 374 kts 103°
2026-05-05 12:06 35.14647 32.66049 18196 ft 372 kts 103°
2026-05-05 12:06 35.13845 32.69045 17762 ft 369 kts 103°
2026-05-05 12:06 35.13052 32.72008 17369 ft 365 kts 103°
2026-05-05 12:07 35.12269 32.74939 16969 ft 362 kts 103°
2026-05-05 12:07 35.11491 32.77841 16571 ft 358 kts 103°
2026-05-05 12:07 35.10721 32.80716 16189 ft 354 kts 103°
2026-05-05 12:07 35.09960 32.83553 15803 ft 349 kts 103°
2026-05-05 12:08 35.09206 32.86360 15416 ft 346 kts 103°
2026-05-05 12:08 35.08460 32.89143 15057 ft 343 kts 103°
2026-05-05 12:08 35.07719 32.91906 14654 ft 342 kts 103°
2026-05-05 12:08 35.06978 32.94657 14278 ft 340 kts 104°
2026-05-05 12:09 35.06217 32.97377 13898 ft 338 kts 105°
2026-05-05 12:09 35.05439 33.00077 13497 ft 336 kts 105°
2026-05-05 12:09 35.04669 33.02713 13129 ft 332 kts 105°
2026-05-05 12:09 35.03901 33.05344 12755 ft 328 kts 106°
2026-05-05 12:10 35.03143 33.07946 12394 ft 324 kts 106°
2026-05-05 12:10 35.02394 33.10530 12034 ft 321 kts 106°
2026-05-05 12:10 35.01655 33.13077 11668 ft 317 kts 107°
2026-05-05 12:10 35.00927 33.15602 11303 ft 313 kts 107°
2026-05-05 12:11 35.00212 33.18098 10953 ft 311 kts 108°
2026-05-05 12:11 34.99502 33.20580 10602 ft 309 kts 108°
2026-05-05 12:11 34.98795 33.23042 10251 ft 306 kts 109°
2026-05-05 12:11 34.98094 33.25474 10072 ft 304 kts 109°
2026-05-05 12:12 34.97385 33.27921 9965 ft 307 kts 109°
2026-05-05 12:12 34.96670 33.30388 9568 ft 309 kts 109°
2026-05-05 12:12 34.95957 33.32846 9168 ft 306 kts 109°
2026-05-05 12:12 34.95249 33.35274 8823 ft 302 kts 109°
2026-05-05 12:13 34.94549 33.37680 8468 ft 300 kts 109°
2026-05-05 12:13 34.93856 33.40061 8104 ft 297 kts 109°
2026-05-05 12:13 34.93169 33.42419 7743 ft 293 kts 109°
2026-05-05 12:13 34.92490 33.44752 7385 ft 291 kts 109°
2026-05-05 12:14 34.91816 33.47063 7030 ft 288 kts 109°
2026-05-05 12:14 34.91147 33.49351 6683 ft 286 kts 109°
2026-05-05 12:14 34.90483 33.51627 6328 ft 284 kts 109°
2026-05-05 12:14 34.89821 33.53889 5963 ft 282 kts 109°
2026-05-05 12:15 34.89159 33.56130 5599 ft 280 kts 109°
2026-05-05 12:15 34.88496 33.58346 5272 ft 277 kts 109°
2026-05-05 12:15 34.87842 33.60506 4977 ft 274 kts 109°
2026-05-05 12:15 34.87182 33.62658 4774 ft 269 kts 109°
2026-05-05 12:16 34.86533 33.64781 4562 ft 265 kts 105°
2026-05-05 12:16 34.86394 33.66934 4355 ft 251 kts 77°
2026-05-05 12:16 34.86875 33.68948 4144 ft 246 kts 69°
2026-05-05 12:16 34.87274 33.70274 3928 ft 246 kts 68°
2026-05-05 12:17 34.87867 33.72164 3670 ft 245 kts 68°
2026-05-05 12:17 34.88479 33.74104 3421 ft 244 kts 68°
2026-05-05 12:17 34.89088 33.76025 3159 ft 241 kts 68°
2026-05-05 12:17 34.89685 33.77900 2928 ft 235 kts 68°
2026-05-05 12:18 34.90295 33.79723 2679 ft 228 kts 61°
2026-05-05 12:18 34.91343 33.81071 2421 ft 217 kts 31°
2026-05-05 12:18 34.92667 33.81829 2219 ft 207 kts
2026-05-05 12:18 34.94067 33.81793 2104 ft 196 kts 352°
2026-05-05 12:19 34.95350 33.81456 2013 ft 186 kts 332°
2026-05-05 12:19 34.96251 33.80389 2021 ft 182 kts 302°
2026-05-05 12:19 34.96704 33.78963 2013 ft 182 kts 284°
2026-05-05 12:19 34.96936 33.77446 2009 ft 182 kts 281°
2026-05-05 12:20 34.97092 33.75912 2002 ft 183 kts 271°
2026-05-05 12:20 34.96842 33.74399 2008 ft 185 kts 249°
2026-05-05 12:20 34.96134 33.73111 1973 ft 187 kts 227°
2026-05-05 12:20 34.95215 33.71986 1803 ft 187 kts 227°
2026-05-05 12:21 34.94305 33.70877 1610 ft 179 kts 226°
2026-05-05 12:21 34.93458 33.69841 1379 ft 169 kts 224°
2026-05-05 12:21 34.92651 33.68851 1180 ft 165 kts 224°
2026-05-05 12:21 34.91848 33.67869 998 ft 163 kts 225°
2026-05-05 12:22 34.91061 33.66906 785 ft 155 kts 225°
2026-05-05 12:22 34.90329 33.66009 593 ft 145 kts 225°
2026-05-05 12:22 34.89634 33.65160 407 ft 140 kts 224°
2026-05-05 12:22 34.88968 33.64342 246 ft 131 kts 224°
2026-05-05 12:23 34.88342 33.63578 101 ft 133 kts 224°
2026-05-05 12:23 34.87727 33.62825 24 ft 114 kts 225°
2026-05-05 12:23 34.87337 33.62349 18 ft 58 kts 225°
2026-05-05 12:23 34.87104 33.62062 23 ft 38 kts 226°
2026-05-05 12:24 34.86986 33.61842 23 ft 26 kts 250°
2026-05-05 12:24 34.86938 33.61640 20 ft 23 kts 255°
2026-05-05 12:24 34.86910 33.61507 19 ft 15 kts 256°
2026-05-05 12:24 34.86885 33.61404 18 ft 13 kts 268°
2026-05-05 12:25 34.86941 33.61313 20 ft 13 kts 315°
2026-05-05 12:25 34.86998 33.61244 20 ft 12 kts 316°
2026-05-05 12:25 34.87037 33.61197 20 ft 6 kts 316°
2026-05-05 12:25 34.87030 33.61151 20 ft 7 kts 229°
2026-05-05 12:26 34.87003 33.61119 20 ft 2 kts 225°
2026-05-05 12:26 34.86997 33.61111 20 ft 0 kts 225°